TimeEST,TemperatureF,Dew PointF,Humidity,Sea Level PressureIn,VisibilityMPH,Wind Direction,Wind SpeedMPH,Gust SpeedMPH,PrecipitationIn,Events,Conditions,WindDirDegrees,DateUTC
12:56 AM,28.9,24.1,82,30.17,8.0,Calm,Calm,-,N/A,,Clear,0,2012-11-08 05:56:00
2:56 AM,24.1,21.0,88,30.17,4.0,Calm,Calm,-,N/A,,Clear,0,2012-11-08 07:56:00
3:56 AM,25.0,21.0,85,30.18,4.0,Calm,Calm,-,N/A,,Clear,0,2012-11-08 08:56:00
4:56 AM,24.1,21.0,88,30.19,6.0,Calm,Calm,-,N/A,,Clear,0,2012-11-08 09:56:00
5:56 AM,23.0,19.0,85,30.20,5.0,Calm,Calm,-,N/A,,Clear,0,2012-11-08 10:56:00
6:56 AM,23.0,19.0,85,30.22,7.0,Calm,Calm,-,N/A,,Clear,0,2012-11-08 11:56:00
7:56 AM,24.1,21.0,88,30.23,7.0,Calm,Calm,-,N/A,,Clear,0,2012-11-08 12:56:00
8:56 AM,30.0,28.0,92,30.25,4.0,Calm,Calm,-,N/A,,Clear,0,2012-11-08 13:56:00
9:56 AM,39.0,30.9,73,30.24,7.0,Calm,Calm,-,N/A,,Clear,0,2012-11-08 14:56:00
10:56 AM,42.1,30.9,65,30.24,10.0,Calm,Calm,-,N/A,,Clear,0,2012-11-08 15:56:00
11:56 AM,45.0,30.0,56,30.22,10.0,Calm,Calm,-,N/A,,Clear,0,2012-11-08 16:56:00
12:56 PM,46.0,28.9,51,30.19,10.0,Calm,Calm,-,N/A,,Clear,0,2012-11-08 17:56:00
1:56 PM,48.0,28.9,48,30.18,10.0,Calm,Calm,-,N/A,,Clear,0,2012-11-08 18:56:00
2:56 PM,50.0,28.9,44,30.17,10.0,SW,3.5,-,N/A,,Clear,230,2012-11-08 19:56:00
3:56 PM,48.0,28.9,48,30.16,10.0,West,3.5,-,N/A,,Partly Cloudy,280,2012-11-08 20:56:00
4:56 PM,46.9,28.9,50,30.16,10.0,Calm,Calm,-,N/A,,Clear,0,2012-11-08 21:56:00
5:56 PM,44.1,28.9,55,30.17,10.0,West,4.6,-,N/A,,Clear,270,2012-11-08 22:56:00
6:56 PM,39.9,28.0,63,30.17,10.0,Calm,Calm,-,N/A,,Clear,0,2012-11-08 23:56:00
7:56 PM,35.1,28.0,76,30.17,9.0,SW,3.5,-,N/A,,Clear,230,2012-11-09 00:56:00
8:56 PM,33.1,27.0,78,30.16,9.0,Calm,Calm,-,N/A,,Clear,0,2012-11-09 01:56:00
9:56 PM,30.9,26.1,82,30.15,9.0,SW,3.5,-,N/A,,Clear,230,2012-11-09 02:56:00
10:56 PM,35.1,28.9,78,30.16,7.0,WSW,4.6,-,N/A,,Clear,240,2012-11-09 03:56:00
11:56 PM,35.1,30.0,82,30.16,6.0,Calm,Calm,-,N/A,,Haze,0,2012-11-09 04:56:00